Погода в Поселке совхоза Петровский

Россия / Липецкая область     52°14′33″N   40°39′23″E
темп.,
°C
ветер,
м/с
пор.,
м/с
влажн.,
%
обл.,
%
осадки,
мм/ч
давл.,
гПа
погр.,
м
12 мая, ср
ср1200:00+6в348788 0.0 102659
03:00+6всв358616 0.0 102589
06:00+7св3882100 0.0 1025196
09:00+12всв5772100 0.1 1022682
12:00+11св438096 1.4 1021688
15:00+13всв126831 1.4 1020922
18:00+13вюв23693 0.0 1018650
21:00+9в47915 0.0 1019119
13 мая, чт
чт1300:00+9в51193100 0.0 1019238
03:00+8в5119392 0.0 1019245
06:00+10вюв41087100 0.0 1018252
09:00+14вюв477298 0.0 1017362
12:00+19ююв45539 0.0 10161172
15:00+21ююв344915 0.0 10161630
18:00+19юв3667100 0.0 1015180
21:00+14юв467761 0.0 101680
14 мая, пт
пт1400:00+13юв4782100 0.0 1017106
03:00+13юв4780100 0.0 1017109
06:00+14вюв38835 0.0 1017170
09:00+20вюв696875 0.0 1016531
12:00+24юв785779 0.0 10161240
15:00+25юв61058100 0.0 10141331
18:00+23ююв497070 0.0 1013360
21:00+19вюв478874 0.0 1013102
15 мая, сб
сб1500:00+17юв479066 0.0 1013103
03:00+15юв4108851 0.0 1011165
06:00+16ююв49875 0.0 1012222
09:00+21ю5872100 0.0 1012498
12:00+23ююз336891 0.7 10131094
15:00+24ю676483 3.3 10121347
18:00+22ююз477523 1.0 1012717
21:00+18ююз3388100 1.6 101334
16 мая, вс
вс1600:00+16з22859 0.4 101312
03:00+15зсз118521 0.4 101411
06:00+16юз1181100 0.0 101419
09:00+21зсз116418 0.0 1014385
12:00+24св01496 0.0 10141348
15:00+25св235195 0.0 10131601
18:00+23в1467100 0.1 1013190
21:00+18всв337329 0.1 101321